loading
DOY 198 | 2024-07-16T13:22:24Z

ELEKTRON 3 DEB, 831

Orbit data source: Space-Track

ELEKTRON 3 DEB, 831 is space debris in LEO originally from a launch on Fri, 10 Jul 1964 UTC launched from the Tyuratam Missile And Space Complex (TTMTR). Debris objects in space refer to the collection of defunct objects orbiting the Earth. Examples of debris include non-operational satellites, rocket bodies, and fragments generated from explosions, collisions, or faulty payload assembly.

Loading next visibility...
Loading greatness...
ELEKTRON 3 DEB details
NORAD ID831
COSPAR ID
1964-038C
Orbit
LEO
Last TLE update10 hours ago
Origin
Flag of CISOKB-1 (CIS)
ManufacturerOKB-1
BusAdapter
MotorUnknown
MassWet unknown, Dry mass unknown
Launch date (UTC)
1964-07-10 (60 years ago)
Launch vehicleUnknown
Launch site
Tyuratam Missile And Space Complex (TTMTR)
Object type
Payload
Rocket body
Debris
Radar Cross SectionMedium (>0.1 m² and <1 m²)
Predictive object data (real-time)
Latitude-7.32123°
Longitude162.74753°
Altitude544.076 km
Speed8.037 km/s
Apparent Right ascension11h 47m 02s
Apparent Declination-25° 27' 56"
Sunlit
Object is in daylight
Predictive observer data (real-time)
Local Sidereal Time02:01:25
Azimuth72.996° E
Elevation-58.506°
Doppler factor1
Orbital elements
Apogee2,612.664 km
Perigee376.577 km
Semi-major axis7,872.758 km
Eccentricity0.1420142
Inclination60.6743°
RAAN158.5998°
Arg. of periapsis27.5363°
True anomaly332.56439°
Mean anomaly339.4026°
Mean motion3.10708 °/min
BSTAR0.0047044
Period115.86 mins
Definitive object data (Epoch: 2024-07-16T03:45:07.872Z)
Latitude-0.00009°
Longitude167.83769°
Altitude474.449 km
Speed8.109 km/s
True Right ascension10h 34m 23s
True Declination0° 00' 00"
Sunlit
Object was in daylight at TLE epoch
TLE from 10 hours ago
0 ELEKTRON 3 DEB
1   831U 64038C   24198.15634112  .00047983  00000-0  47044-2 0  9992
2   831  60.6743 158.5998 1420142  27.5363 339.4026 12.42641725277169
Epoch: 2024-07-16T03:45Z
No data available

ELEKTRON 3 DEB Visibility forecast

Observer location: 39.9160978°, -105.1181434

ELEKTRON 3 DEB is not visible in the next 10 days
Span
Click to sort rows by Start time (UTC) header in descending order
Start Az.
Max El. time (UTC)
Max El. Az.
Max El.
End time (UTC)
End Az.